Date,TemperatureHighF,TemperatureAvgF,TemperatureLowF,DewpointHighF,DewpointAvgF,DewpointLowF,HumidityHigh,HumidityAvg,HumidityLow,PressureMaxIn,PressureMinIn,WindSpeedMaxMPH,WindSpeedAvgMPH,GustSpeedMaxMPH,PrecipitationSumIn
2013-1-1,32.4,28.8,22.8,32.1,25.6,18.4,99,88,69,30.09,29.97,5,2,8,0.00
2013-1-2,27.1,19.7,13.1,19.7,15.0,10.5,95,82,64,30.19,30.07,4,1,6,0.00
2013-1-3,34.5,23.6,12.0,23.2,15.8,7.5,88,73,42,30.23,30.12,8,3,13,0.04
2013-1-4,34.9,28.9,24.4,23.9,20.1,18.0,80,70,52,30.27,30.20,11,6,19,0.01
2013-1-5,41.0,31.3,19.9,27.2,23.8,18.0,95,75,54,30.30,30.09,9,4,13,0.00
2013-1-6,37.6,32.2,25.3,33.0,27.0,20.8,94,81,71,30.28,29.96,12,5,16,0.00
2013-1-7,39.6,29.7,21.4,26.4,23.8,19.9,97,80,58,30.41,30.19,6,2,11,0.00
2013-1-8,49.5,33.8,21.9,32.3,27.0,19.7,95,78,51,30.26,30.15,7,2,11,0.00
2013-1-9,51.6,43.2,34.5,42.3,35.4,29.8,94,74,56,30.45,30.15,8,4,11,0.04
2013-1-10,42.1,35.0,28.0,36.3,31.0,26.8,98,86,73,30.46,30.07,7,3,11,0.05
2013-1-11,60.6,52.6,42.1,55.6,48.5,36.0,99,86,68,30.08,29.85,12,4,18,0.32
2013-1-12,64.6,58.9,54.0,63.2,56.5,49.5,99,92,75,30.00,29.77,9,5,16,0.01
2013-1-13,65.7,54.3,34.7,62.7,53.0,34.2,99,96,80,30.07,29.70,17,7,22,0.59
2013-1-14,34.7,25.7,23.2,34.2,22.1,19.3,98,86,75,30.39,30.07,8,1,11,0.00
2013-1-15,32.7,27.3,22.5,24.8,22.2,19.4,92,81,69,30.32,30.02,5,1,8,0.00
2013-1-16,35.4,32.0,29.7,28.3,25.4,21.8,88,77,58,30.03,29.91,7,3,10,0.00
2013-1-17,43.3,32.9,24.8,31.3,24.9,16.8,84,72,55,30.32,30.02,9,3,14,0.00
2013-1-18,38.1,28.6,18.1,23.4,16.9,13.4,85,63,37,30.45,30.15,13,5,19,0.00
2013-1-19,53.6,43.8,35.6,28.5,24.5,22.7,60,47,30,30.15,29.84,16,10,24,0.00
2013-1-20,46.4,31.9,22.8,35.1,15.6,7.3,72,51,33,30.16,29.84,16,7,22,0.00
2013-1-21,22.8,18.8,8.1,16.1,9.0,-3.2,86,65,49,30.15,30.01,12,6,19,0.00
2013-1-22,16.7,10.1,4.1,0.7,-2.1,-4.2,72,57,43,30.29,30.15,9,5,14,0.00
2013-1-23,19.0,15.1,10.0,13.5,5.0,-1.8,83,64,42,30.27,30.02,9,3,12,0.00
2013-1-24,23.4,17.0,10.8,15.4,7.3,3.3,88,66,47,30.51,30.05,10,4,17,0.00
2013-1-25,24.8,20.4,16.7,21.2,14.0,7.9,87,76,62,30.38,29.97,6,4,10,0.00
2013-1-26,33.3,25.0,18.5,21.8,18.3,13.7,90,76,59,30.37,30.04,6,3,9,0.05
2013-1-27,35.6,26.7,16.5,32.0,20.7,12.6,98,78,62,30.38,30.12,6,2,10,0.21
2013-1-28,51.8,45.8,32.5,51.5,45.2,32.0,99,98,87,30.12,29.97,10,6,15,0.25
2013-1-29,65.1,58.1,51.4,58.6,54.4,51.2,99,88,72,30.01,29.56,14,8,21,0.00
2013-1-30,66.6,53.1,31.8,59.0,48.6,25.9,99,85,75,29.56,29.24,16,9,28,0.61
2013-1-31,31.8,24.7,14.5,26.7,17.8,10.1,95,75,52,29.95,29.48,12,7,18,0.01